Вернуться в каталог

YZ-1 R/B

АктивенMEO
NORAD 43584·ROCKET BODY·🇨🇳 China

Запущен Jul 29, 2018 с Xichang Satellite Launch Center

Loading…

Ближайшие Пролёты (ближайшие 24 часа)

TLE

СвежийSource: Space-Track

Эпоха: Sep 13, 2026, 04:52 UTC

1 43584U 18062D   26256.20302876 -.00000004  00000-0  00000-0 0  9995
2 43584  54.0099 187.8519 0044919  50.0544 310.3289  1.78871145 53092

Отслеживайте YZ-1 R/B в реальном времени с AllMySat

Download on the App Store